Montgomery, NY

7:55 PM EDT on August 22, 2017 (GMT -0400)
Orange County

Weather History for KMGJ - October, 2013

Change the Weather History Date:

Saturday, October 5, 2013

  Actual Average (KSWF) Record (KSWF)
Temperature  
Mean Temperature 68 °F -  
Max Temperature 77 °F 63 °F 86 °F (2007)
Min Temperature 60 °F 42 °F 30 °F (1974)
Cooling Degree Days 4    
Growing Degree Days 18 (Base 50)    
Moisture  
Dew Point 61 °F    
Average Humidity 88    
Maximum Humidity 94    
Minimum Humidity 64    
Precipitation  
Precipitation 0.03 in - - ()
Sea Level Pressure  
Sea Level Pressure 30.08 in    
Wind  
Wind Speed 3 mph (NNE)    
Max Wind Speed 8 mph    
Max Gust Speed -    
Visibility 7 miles    
Events Rain    
Averages and records for this station are not official NWS values.
T = Trace of Precipitation, MM = Missing Value Source: NWS Daily Summary

Daily Weather History Graph

Daily Weather History Graph

Search for Another Location

Airport or City:

Trip Planner

Search our weather history database for the weather conditions in past years. The results will help you decide how hot, cold, wet, or windy it might be!

Date:

Astronomy

Oct. 05, 2013 Rise Set
Actual Time 6:58 AM EDT 6:31 PM EDT
Civil Twilight 6:30 AM EDT 6:59 PM EDT
Nautical Twilight 5:58 AM EDT 7:31 PM EDT
Astronomical Twilight 5:26 AM EDT 8:03 PM EDT
Moon 7:35 AM EDT (10/5) 6:47 PM EDT (10/5)
Length of Visible Light 12h 28m
Length of Day
11h 33m
New Moon, 0% of the Moon is Illuminated
Oct 5
New Moon
Oct 11
First Quarter
Oct 18
Full
Oct 26
Last Quarter
Nov 3
New

Hourly Weather History & Observations

Time (EDT) Temp. Dew Point Humidity Pressure Visibility Wind Dir Wind Speed Gust Speed Precip Events Conditions
12:54 AM 61.0 °F 59.0 °F 93% 30.05 in 7.0 mi NNE 8.1 mph - 0.00 in   Partly Cloudy
1:20 AM 60.8 °F 59.0 °F 94% 30.05 in 9.0 mi Calm Calm - N/A   Mostly Cloudy
1:44 AM 60.8 °F 57.2 °F 88% 30.06 in 7.0 mi Calm Calm - N/A   Scattered Clouds
1:54 AM 60.1 °F 57.9 °F 93% 30.05 in 7.0 mi Calm Calm - N/A   Mostly Cloudy
2:03 AM 60.8 °F 57.2 °F 88% 30.06 in 7.0 mi North 4.6 mph - N/A   Mostly Cloudy
2:54 AM 61.0 °F 59.0 °F 93% 30.05 in 8.0 mi Calm Calm - N/A   Overcast
3:54 AM 61.0 °F 59.0 °F 93% 30.05 in 8.0 mi North 3.5 mph - N/A   Overcast
4:54 AM 62.1 °F 59.0 °F 90% 30.06 in 10.0 mi Calm Calm - N/A   Overcast
5:54 AM 61.0 °F 59.0 °F 93% 30.07 in 8.0 mi North 3.5 mph - N/A   Overcast
6:54 AM 60.1 °F 57.9 °F 93% 30.08 in 5.0 mi North 5.8 mph - N/A   Overcast
7:45 AM 60.8 °F 59.0 °F 94% 30.08 in 3.0 mi Calm Calm - N/A   Overcast
7:54 AM 61.0 °F 59.0 °F 93% 30.09 in 4.0 mi Calm Calm - N/A   Overcast
8:20 AM 60.8 °F 59.0 °F 94% 30.09 in 2.5 mi Calm Calm - N/A   Overcast
8:35 AM 60.8 °F 59.0 °F 94% 30.10 in 3.0 mi North 3.5 mph - N/A   Overcast
8:54 AM 61.0 °F 59.0 °F 93% 30.11 in 2.5 mi North 4.6 mph - N/A   Overcast
9:19 AM 62.6 °F 60.8 °F 94% 30.11 in 1.5 mi NE 5.8 mph - N/A   Overcast
9:54 AM 62.1 °F 60.1 °F 93% 30.11 in 1.8 mi Calm Calm - N/A   Overcast
10:09 AM 62.6 °F 60.8 °F 94% 30.11 in 2.0 mi Calm Calm - N/A   Overcast
10:23 AM 62.6 °F 60.8 °F 94% 30.11 in 3.0 mi Calm Calm - N/A   Overcast
10:54 AM 64.0 °F 61.0 °F 90% 30.11 in 6.0 mi Calm Calm - N/A   Overcast
11:12 AM 64.4 °F 60.8 °F 88% 30.11 in 8.0 mi Calm Calm - N/A   Overcast
11:43 AM 64.4 °F 60.8 °F 88% 30.10 in 9.0 mi ESE 4.6 mph - N/A   Unknown
11:54 AM 64.9 °F 61.0 °F 87% 30.10 in 9.0 mi Calm Calm - N/A   Unknown
12:13 PM 66.2 °F 60.8 °F 83% 30.10 in 9.0 mi Calm Calm - N/A   Overcast
12:50 PM 68.0 °F 60.8 °F 78% 30.08 in 10.0 mi Calm Calm - N/A   Overcast
12:54 PM 66.9 °F 62.1 °F 84% 30.08 in 10.0 mi Calm Calm - N/A   Overcast
1:54 PM 71.1 °F 63.0 °F 75% 30.05 in 10.0 mi Calm Calm - N/A   Partly Cloudy
2:54 PM 73.9 °F 64.0 °F 71% 30.04 in 10.0 mi Calm Calm - N/A   Clear
3:54 PM 75.9 °F 64.0 °F 67% 30.03 in 10.0 mi Calm Calm - N/A   Clear
4:54 PM 77.0 °F 64.0 °F 64% 30.03 in 10.0 mi Calm Calm - N/A   Partly Cloudy
5:54 PM 73.0 °F 63.0 °F 71% 30.03 in 10.0 mi East 3.5 mph - N/A   Clear
6:54 PM 70.0 °F 64.9 °F 84% 30.04 in 10.0 mi NNE 3.5 mph - N/A   Mostly Cloudy
7:54 PM 68.0 °F 64.0 °F 87% 30.05 in 10.0 mi NNE 4.6 mph - N/A   Overcast
8:54 PM 66.9 °F 63.0 °F 87% 30.07 in 10.0 mi NNE 3.5 mph - 0.00 in Rain Light Rain
9:26 PM 66.2 °F 62.6 °F 88% 30.08 in 10.0 mi NNE 4.6 mph - 0.00 in   Overcast
9:50 PM 66.2 °F 62.6 °F 88% 30.08 in 8.0 mi NE 6.9 mph - 0.00 in   Overcast
9:54 PM 66.0 °F 63.0 °F 90% 30.08 in 8.0 mi NNE 8.1 mph - 0.00 in   Overcast
10:54 PM 63.0 °F 60.1 °F 90% 30.09 in 6.0 mi NNE 5.8 mph - 0.03 in Rain Light Rain
11:03 PM 62.6 °F 60.8 °F 94% 30.09 in 7.0 mi North 8.1 mph - 0.00 in Rain Light Rain
11:54 PM 61.0 °F 59.0 °F 93% 30.09 in 8.0 mi North 4.6 mph - 0.00 in   Overcast